Flag for Canada Weather past 2 weeks in Saskatoon, Saskatchewan, Canada

Now
81 °F

Passing clouds.


Feels Like: 81 °F
Forecast: 57 / 82 °F
Wind: 6 mph from East

Location: Saskatoon Weather Station

Current Time: Jul 29, 2014 at 7:04:52 PM

Latest Report: Jul 29, 2014 at 6:00 PM


Visibility: 15 mi

Pressure: 30.18 "Hg

Humidity: 51%

Dew point: 61 °F

Location of SaskatoonLocation

Historic Weather in Saskatoon — Graph

°F

Saskatoon temperature yesterday

Maximum temperature yesterday: 81 °F (at 3:00 PM)
Minimum temperature yesterday: 57 °F (at 5:00 AM)
Average temperature yesterday: 69 °F

Past Weeks' High & Low Weather Summary

 TemperatureHumidityPressure
High82 °F (Jul 16, 3:00 PM)100% (Jul 18, 7:00 AM)30.32 "Hg (Jul 18, 7:00 AM)
Low48 °F (Jul 21, 4:00 AM)39% (Jul 15, 3:00 PM)29.50 "Hg (Jul 17, 10:00 PM)
Average65 °F76%29.94 "Hg
* Reported Jul 14 6:00 PM — Jul 29 6:00 PM, Saskatoon, Weather by CustomWeather, © 2014

Note: Actual official high and low records may vary slightly from our data, if they occured in-between our weather recording intervals... More about our weather records

Advertising

Saskatoon weather history for previous 24 hours

 ConditionsComfort  
Time TempWeatherWind HumidityBarometerVisibility
6:00 PM
Jul 29
81 °FPassing clouds.6 mph51%30.18 "Hg15 mi
5:00 PM81 °FPassing clouds.7 mph48%30.20 "Hg15 mi
4:00 PM81 °FPassing clouds.6 mph48%30.21 "Hg15 mi
3:00 PM81 °FPassing clouds.7 mph45%30.22 "Hg15 mi
2:00 PM81 °FPassing clouds.5 mph45%30.22 "Hg15 mi
1:00 PM79 °FPassing clouds.3 mph48%30.23 "Hg15 mi
12:00 PM79 °FPassing clouds.No wind54%30.24 "Hg15 mi
11:00 AM77 °FPassing clouds.2 mph57%30.24 "Hg15 mi
10:00 AM73 °FSunny.2 mph65%30.25 "Hg15 mi
9:00 AM70 °FSunny.2 mph78%30.25 "Hg15 mi
8:00 AM64 °FSunny.2 mph88%30.25 "Hg15 mi
7:00 AM61 °FPassing clouds.No wind94%30.25 "Hg15 mi
6:00 AM55 °FFog.2 mph100%30.25 "Hg15 mi
5:00 AM57 °FFog.2 mph100%30.24 "Hg15 mi
4:52 AM59 °FClear.2 mph94%30.24 "Hg5 mi
4:00 AM57 °FClear.2 mph94%30.23 "Hg15 mi
3:00 AM59 °FClear.No wind100%30.23 "Hg15 mi
2:00 AM61 °FClear.No wind100%30.23 "Hg15 mi
1:00 AM63 °FClear.2 mph94%30.24 "Hg15 mi
12:00 AM64 °FClear.2 mph83%30.23 "Hg15 mi
11:00 PM
Jul 28
64 °FClear.6 mph88%30.23 "Hg15 mi
10:00 PM68 °FClear.5 mph78%30.23 "Hg15 mi
9:00 PM70 °FPassing clouds.5 mph78%30.23 "Hg15 mi
8:00 PM73 °FPassing clouds.7 mph65%30.23 "Hg15 mi
7:00 PM77 °FPassing clouds.3 mph51%30.23 "Hg15 mi
Weather by CustomWeather, © 2014

See weather overviewHow to use our weather pages